IRIDIUM 65 [-] (25288 NORAD) Tracking and Keplerian Element Data

This shows tracking and keplerian element data for the satellite.

Feedback or suggestion? Click here.




ElementValue
Catalog25288
NameIRIDIUM 65 [-]
Epoch Orbit6170
Epoch Day198.9301132
Epoch Year2018
RAAN56.6927
Inclination86.3787
Eccentricity0.0113033
Argument of Perigee109.3184
Mean Anonmoly252.0378
Mean Motion16.20432515
Decay Rate0.06496963
L11 25288U 98021D 18198.93011320 .06496963 -16851-5 44721-3 0 9992
L22 25288 86.3787 56.6927 0113033 109.3184 252.0378 16.20432515 61708

Live tracking and technical data element details for IRIDIUM 65 [-] (NORAD 25288). IRIDIUM 65 [-] can be tracked NOW for your location showing map with azimuth and elevation plus other details from your city location.

Track the satellite on the map from your city or location and see movement details for azimuth, elevation, latitude, longitude, range, height, and movement on the map or in text.







IsCatalogInMostPopularTable: catalog: 25288, numindb: 46
Update: records affected: 1



GetName: 25288 IRIDIUM 65 [-]

Hit Count: updated at: Sat, 15 Dec 2018 19:27:42 GMT